G4MDP-13 Weather Reports


Display with metric or nautical units.
time (UTC)temp
F
wind
direction
speed
MPH
gust
MPH
rain 1hr
in
rain 24hr
in
rain mn
in
humidity
%
barometer
mb
20260507060517 47 152 4.0 5.0 0.00 0.00 0.00 88 1009.7
20260507060417 47 152 4.0 5.0 0.00 0.00 0.00 88 1009.7
20260507054917 46 151 4.0 6.0 0.00 0.00 0.00 89 1015.6
20260507053517 46 148 4.0 5.0 0.00 0.00 0.00 89 1015.5
20260507053417 46 147 4.0 5.0 0.00 0.00 0.00 89 1015.5
20260507051917 46 151 5.0 6.0 0.00 0.00 0.00 88 1015.5
20260507050517 46 145 4.0 6.0 0.00 0.00 0.00 88 1009.4
20260507050417 46 143 4.0 5.0 0.00 0.00 0.00 88 1009.4
20260507044917 45 141 4.0 6.0 0.00 0.00 0.00 88 1009.6
20260507043517 45 147 4.0 5.0 0.00 0.00 0.00 87 1015.1
20260507043417 45 146 4.0 5.0 0.00 0.00 0.00 87 1015.2
20260507041917 46 139 4.0 5.0 0.00 0.00 0.00 87 1015.3
20260507040517 46 142 4.0 5.0 0.00 0.00 0.00 87 1009.1
20260507040417 46 142 4.0 5.0 0.00 0.00 0.00 87 1009.1
20260507034917 46 131 4.0 6.0 0.00 0.00 0.00 87 1009.3
20260507033517 46 133 4.0 6.0 0.00 0.00 0.00 88 1009.1
20260507033417 46 133 4.0 6.0 0.00 0.00 0.00 88 1009.1
20260507031917 46 139 4.0 5.0 0.00 0.00 0.00 87 1009.2
20260507030517 46 134 4.0 6.0 0.00 0.00 0.00 87 1015.2
20260507030417 46 136 4.0 6.0 0.00 0.00 0.00 87 1015.0
20260507024917 46 136 4.0 6.0 0.00 0.00 0.00 86 1009.0
20260507023517 46 138 4.0 5.0 0.00 0.00 0.00 85 1014.9
20260507023417 46 137 4.0 5.0 0.00 0.00 0.00 85 1015.0
20260507021917 46 146 4.0 6.0 0.00 0.00 0.00 85 1008.9
20260507020517 46 147 4.0 5.0 0.00 0.00 0.00 84 1014.9
20260507020417 46 147 4.0 5.0 0.00 0.00 0.00 84 1014.8
20260507014917 47 147 4.0 5.0 0.00 0.00 0.00 83 1008.7
20260507013517 47 148 4.0 5.0 0.00 0.00 0.00 82 1014.9
20260507013417 47 149 4.0 5.0 0.00 0.00 0.00 82 1014.7
20260507011917 48 149 4.0 5.0 0.00 0.00 0.00 81 1008.7
20260507010517 48 148 4.0 5.0 0.00 0.00 0.00 80 1008.7
20260507010417 48 147 4.0 5.0 0.00 0.00 0.00 80 1008.7
20260507004917 49 148 4.0 5.0 0.00 0.00 0.00 79 1008.9
20260507003517 49 146 4.0 5.0 0.00 0.00 0.00 77 1008.9
20260507003417 49 145 4.0 5.0 0.00 0.00 0.00 77 1008.9
20260507001917 50 146 4.0 5.0 0.00 0.00 0.00 77 1008.7
20260507000517 50 150 4.0 5.0 0.00 0.00 0.00 76 1014.8
20260507000417 50 149 4.0 5.0 0.00 0.00 0.00 75 1015.0
20260506234917 51 149 4.0 5.0 0.00 0.00 0.00 73 1015.0
20260506233517 51 150 4.0 5.0 0.00 0.00 0.00 72 1009.0
20260506233417 51 150 4.0 6.0 0.00 0.00 0.00 72 1014.8
20260506231917 51 152 5.0 6.0 0.00 0.00 0.00 72 1014.7
20260506230517 51 153 4.0 6.0 0.00 0.00 0.00 71 1014.7
20260506230417 51 153 4.0 6.0 0.00 0.00 0.00 71 1014.7
20260506224917 51 154 4.0 5.0 0.00 0.00 0.00 71 1014.7
20260506223517 51 155 4.0 5.0 0.00 0.00 0.00 71 1008.8
20260506223417 51 155 4.0 5.0 0.00 0.00 0.00 71 1008.8
20260506221917 52 154 4.0 5.0 0.00 0.00 0.00 71 1014.7
20260506220517 52 152 4.0 6.0 0.00 0.00 0.00 70 1008.4
20260506220417 52 151 4.0 6.0 0.00 0.00 0.00 70 1008.4
20260506214917 52 153 4.0 6.0 0.00 0.00 0.00 69 1008.5
20260506213517 52 155 4.0 6.0 0.00 0.00 0.00 69 1008.5
20260506213417 52 155 4.0 6.0 0.00 0.00 0.00 69 1008.5
20260506211917 53 154 5.0 6.0 0.00 0.00 0.00 68 1008.4
20260506210517 53 148 4.0 6.0 0.00 0.00 0.00 68 1008.2
20260506210417 53 148 5.0 6.0 0.00 0.00 0.00 68 1008.4
20260506204917 53 152 4.0 5.0 0.00 0.00 0.00 68 1008.3
20260506203517 53 154 4.0 6.0 0.00 0.00 0.00 67 1007.9
20260506203417 53 153 4.0 6.0 0.00 0.00 0.00 67 1008.3
20260506201917 53 154 4.0 6.0 0.00 0.00 0.00 67 1008.0
20260506200517 54 155 4.0 6.0 0.00 0.00 0.00 66 1007.9
20260506200417 54 154 4.0 6.0 0.00 0.00 0.00 66 1007.9
20260506194917 54 150 4.0 6.0 0.00 0.00 0.00 64 1007.7
20260506193517 54 150 4.0 5.0 0.00 0.00 0.00 64 1007.5
20260506193417 54 150 4.0 5.0 0.00 0.00 0.00 64 1007.7
20260506191917 54 144 4.0 5.0 0.00 0.00 0.00 62 1013.4
20260506190517 54 146 4.0 5.0 0.00 0.00 0.00 61 1013.5
20260506190417 54 146 4.0 5.0 0.00 0.00 0.00 61 1013.5
20260506184917 55 150 4.0 5.0 0.00 0.00 0.00 61 1007.2
20260506183517 55 146 4.0 5.0 0.00 0.00 0.00 61 1006.9
20260506183417 55 149 4.0 5.0 0.00 0.00 0.00 60 1006.9
20260506181917 55 134 3.0 6.0 0.00 0.00 0.00 59 1006.9
20260506180517 55 140 3.0 5.0 0.00 0.00 0.00 58 1006.9
20260506180417 55 138 3.0 5.0 0.00 0.00 0.00 58 1006.6
20260506174917 56 144 4.0 6.0 0.00 0.00 0.00 57 1006.5
20260506173517 56 149 4.0 6.0 0.00 0.00 0.00 55 1006.4
20260506173417 56 148 4.0 6.0 0.00 0.00 0.00 55 1006.4
20260506171917 56 144 4.0 6.0 0.00 0.00 0.00 55 1006.4
20260506170517 56 147 3.0 5.0 0.00 0.00 0.00 55 1012.7
20260506170417 56 147 4.0 5.0 0.00 0.00 0.00 55 1012.5
20260506164917 57 133 3.0 6.0 0.00 0.00 0.00 54 1006.3
20260506163517 57 151 3.0 6.0 0.00 0.00 0.00 55 1006.4
20260506163417 57 151 3.0 6.0 0.00 0.00 0.00 54 1006.5
20260506161917 57 142 3.0 6.0 0.00 0.00 0.00 53 1006.1
20260506160517 57 143 3.0 5.0 0.00 0.00 0.00 53 1006.3
20260506160417 57 143 3.0 5.0 0.00 0.00 0.00 53 1006.4
20260506154917 58 146 3.0 6.0 0.00 0.00 0.00 52 1006.4
20260506153517 58 136 4.0 6.0 0.00 0.00 0.00 46 1006.3
20260506153417 58 137 3.0 6.0 0.00 0.00 0.00 46 1006.3
20260506151917 58 134 3.0 6.0 0.00 0.00 0.00 48 1006.4
20260506150517 60 145 3.0 8.0 0.00 0.00 0.00 44 1006.1
20260506150417 60 146 3.0 8.0 0.00 0.00 0.00 44 1006.1
20260506144917 58 132 3.0 6.0 0.00 0.00 0.00 44 1006.3
20260506143517 60 139 3.0 6.0 0.00 0.00 0.00 44 1006.3
20260506143417 60 145 3.0 6.0 0.00 0.00 0.00 44 1006.3
20260506141917 59 148 3.0 5.0 0.00 0.00 0.00 44 1006.1
20260506140517 59 134 3.0 5.0 0.00 0.00 0.00 44 1006.3
20260506140417 60 138 3.0 5.0 0.00 0.00 0.00 44 1006.3
20260506134917 58 121 3.0 6.0 0.00 0.00 0.00 45 1006.3
20260506133517 60 143 3.0 5.0 0.00 0.00 0.00 43 1006.3
20260506133417 60 136 3.0 5.0 0.00 0.00 0.00 43 1006.3
20260506131917 61 140 3.0 6.0 0.00 0.00 0.00 42 1006.5
20260506130517 61 143 3.0 6.0 0.00 0.00 0.00 42 1006.3
20260506130417 61 146 3.0 6.0 0.00 0.00 0.00 42 1006.3
20260506124917 61 153 3.0 7.0 0.00 0.00 0.00 43 1006.2
20260506123517 58 129 4.0 9.0 0.00 0.00 0.00 45 1006.5
20260506123417 57 131 3.0 9.0 0.00 0.00 0.00 45 1006.5
20260506121917 59 140 3.0 6.0 0.00 0.00 0.00 45 1006.3
20260506120517 58 118 3.0 6.0 0.00 0.00 0.00 44 1006.4
20260506120417 58 120 3.0 6.0 0.00 0.00 0.00 45 1006.5
20260506114917 58 131 3.0 6.0 0.00 0.00 0.00 47 1006.2
20260506113517 59 132 3.0 7.0 0.00 0.00 0.00 47 1006.4
20260506113417 59 138 3.0 7.0 0.00 0.00 0.00 47 1006.6
20260506111917 59 146 3.0 6.0 0.00 0.00 0.00 48 1006.6
20260506110517 58 135 4.0 6.0 0.00 0.00 0.00 46 1006.5
20260506110417 58 133 4.0 6.0 0.00 0.00 0.00 48 1006.6
20260506104917 58 141 3.0 6.0 0.00 0.00 0.00 49 1006.6
20260506103517 59 163 3.0 5.0 0.00 0.00 0.00 49 1006.7
20260506103417 59 164 3.0 5.0 0.00 0.00 0.00 48 1006.6
20260506101917 57 139 3.0 5.0 0.00 0.00 0.00 50 1006.7
20260506100517 56 147 3.0 6.0 0.00 0.00 0.00 52 1006.8
20260506100417 56 148 3.0 6.0 0.00 0.00 0.00 52 1006.7
20260506093517 57 149 4.0 6.0 0.00 0.00 0.00 53 1006.9
20260506093417 57 151 4.0 6.0 0.00 0.00 0.00 54 1006.7
20260506091917 54 114 3.0 6.0 0.00 0.00 0.00 54 1006.8
20260506090517 54 143 4.0 6.0 0.00 0.00 0.00 57 1006.8
20260506090417 54 145 4.0 6.0 0.00 0.00 0.00 57 1006.9
20260506084917 53 129 4.0 6.0 0.00 0.00 0.00 61 1006.6
20260506083517 53 145 3.0 6.0 0.00 0.00 0.00 61 1007.0
20260506083417 52 147 4.0 6.0 0.00 0.00 0.00 61 1006.9
20260506081917 51 141 3.0 6.0 0.00 0.00 0.00 65 1006.7
20260506080517 52 152 4.0 6.0 0.00 0.00 0.00 67 1012.6
20260506080417 51 153 4.0 6.0 0.00 0.00 0.00 67 1012.8
20260506073517 51 149 4.0 6.0 0.00 0.00 0.00 70 1006.6
20260506073417 51 150 4.0 6.0 0.00 0.00 0.00 70 1006.6
20260506071917 50 136 3.0 5.0 0.00 0.00 0.00 73 1006.8
20260506070517 49 135 3.0 6.0 0.00 0.00 0.00 75 1006.6
20260506070417 49 138 3.0 6.0 0.00 0.00 0.00 76 1006.6
20260506061918 49 118 3.0 6.0 0.00 0.00 0.00 76 1006.4